Powrót do katalogu

STARLINK-37892

AktywnyŁącznośćSSO
NORAD 69485·PAYLOAD·🇺🇸 United States

Wystrzelony Jun 11, 2026 z Vandenberg Space Force Base

Loading…

Następne Przeloty (najbliższe 24 godziny)

TLE

ŚwieżeSource: CelesTrak SupGP

Epoka: Sep 14, 2026, 16:18 UTC

1 69485C 26131H   26257.67965278 -.00053864  00000+0 -16721-2 0  2570
2 69485  97.2841 278.6035 0001313 102.3860 265.3761 15.33466204    19

Śledź STARLINK-37892 w czasie rzeczywistym z AllMySat

Download on the App Store